Time,TemperatureF,DewpointF,PressureIn,WindDirection,WindDirectionDegrees,WindSpeedMPH,WindSpeedGustMPH,Humidity,HourlyPrecipIn,Conditions,Clouds,dailyrainin,SoftwareType,DateUTC
2013-05-12 00:02:00,38.0,-99.9,29.87,WNW,300,21.0,28.0,-999,-99.99,,,-99.99,,2013-05-12 05:02:00,
2013-05-12 00:12:00,38.0,-99.9,29.87,WNW,300,21.0,28.0,-999,-99.99,,,-99.99,,2013-05-12 05:12:00,
2013-05-12 00:22:00,38.0,-99.9,29.87,WNW,300,21.0,28.0,-999,-99.99,,,-99.99,,2013-05-12 05:22:00,
2013-05-12 00:32:00,38.0,-99.9,29.87,WNW,300,21.0,28.0,-999,-99.99,,,-99.99,,2013-05-12 05:32:00,
2013-05-12 00:42:00,38.0,-99.9,29.87,WNW,300,21.0,31.0,-999,-99.99,,,-99.99,,2013-05-12 05:42:00,
2013-05-12 00:52:00,38.0,-99.9,29.87,WNW,300,21.0,31.0,-999,-99.99,,,-99.99,,2013-05-12 05:52:00,
2013-05-12 01:02:00,37.0,-99.9,29.88,WNW,300,21.0,29.0,-999,-99.99,,,-99.99,,2013-05-12 06:02:00,
2013-05-12 01:11:00,37.0,-99.9,29.88,WNW,300,21.0,29.0,-999,-99.99,,,-99.99,,2013-05-12 06:11:00,
2013-05-12 01:22:00,37.0,-99.9,29.88,WNW,300,21.0,29.0,-999,-99.99,,,-99.99,,2013-05-12 06:22:00,
2013-05-12 01:32:00,37.0,-99.9,29.88,NW,310,24.0,29.0,-999,-99.99,,,-99.99,,2013-05-12 06:32:00,
2013-05-12 01:42:00,37.0,-99.9,29.88,NW,310,24.0,29.0,-999,-99.99,,,-99.99,,2013-05-12 06:42:00,
2013-05-12 01:52:00,37.0,-99.9,29.88,NW,310,24.0,29.0,-999,-99.99,,,-99.99,,2013-05-12 06:52:00,
2013-05-12 02:02:00,37.0,-99.9,29.88,WNW,300,20.0,34.0,-999,-99.99,,,-99.99,,2013-05-12 07:02:00,
2013-05-12 02:11:00,37.0,-99.9,29.88,WNW,300,20.0,34.0,-999,-99.99,,,-99.99,,2013-05-12 07:11:00,
2013-05-12 02:22:00,37.0,-99.9,29.88,WNW,300,20.0,34.0,-999,-99.99,,,-99.99,,2013-05-12 07:22:00,
2013-05-12 02:32:00,37.0,-99.9,29.88,WNW,300,20.0,30.0,-999,-99.99,,,-99.99,,2013-05-12 07:32:00,
2013-05-12 02:42:00,37.0,-99.9,29.88,WNW,300,20.0,30.0,-999,-99.99,,,-99.99,,2013-05-12 07:42:00,
2013-05-12 02:52:00,37.0,-99.9,29.88,WNW,300,20.0,30.0,-999,-99.99,,,-99.99,,2013-05-12 07:52:00,
2013-05-12 03:02:00,37.0,-99.9,29.89,WNW,300,23.0,36.0,-999,-99.99,,,-99.99,,2013-05-12 08:02:00,
2013-05-12 03:11:00,37.0,-99.9,29.89,WNW,300,23.0,36.0,-999,-99.99,,,-99.99,,2013-05-12 08:11:00,
2013-05-12 03:22:00,37.0,-99.9,29.89,WNW,300,23.0,36.0,-999,-99.99,,,-99.99,,2013-05-12 08:22:00,
2013-05-12 03:32:00,37.0,-99.9,29.90,WNW,300,26.0,32.0,-999,-99.99,,,-99.99,,2013-05-12 08:32:00,
2013-05-12 03:42:00,37.0,-99.9,29.90,WNW,300,26.0,32.0,-999,-99.99,,,-99.99,,2013-05-12 08:42:00,
2013-05-12 03:53:00,37.0,-99.9,29.90,WNW,300,26.0,32.0,-999,-99.99,,,-99.99,,2013-05-12 08:53:00,
2013-05-12 04:01:00,37.0,-99.9,29.90,NW,310,28.0,36.0,-999,-99.99,,,-99.99,,2013-05-12 09:01:00,
2013-05-12 04:11:00,37.0,-99.9,29.90,NW,310,28.0,36.0,-999,-99.99,,,-99.99,,2013-05-12 09:11:00,
2013-05-12 04:22:00,37.0,-99.9,29.90,NW,310,28.0,36.0,-999,-99.99,,,-99.99,,2013-05-12 09:22:00,
2013-05-12 04:33:00,37.0,-99.9,29.90,NW,310,28.0,36.0,-999,-99.99,,,-99.99,,2013-05-12 09:33:00,
2013-05-12 04:43:00,36.0,-99.9,29.91,NW,310,24.0,30.0,-999,-99.99,,,-99.99,,2013-05-12 09:43:00,
2013-05-12 04:53:00,36.0,-99.9,29.91,NW,310,24.0,30.0,-999,-99.99,,,-99.99,,2013-05-12 09:53:00,
2013-05-12 05:03:00,36.0,-99.9,29.92,NW,310,26.0,33.0,-999,-99.99,,,-99.99,,2013-05-12 10:03:00,
2013-05-12 05:12:00,36.0,-99.9,29.92,NW,310,26.0,33.0,-999,-99.99,,,-99.99,,2013-05-12 10:12:00,
2013-05-12 05:23:00,36.0,-99.9,29.92,NW,310,26.0,33.0,-999,-99.99,,,-99.99,,2013-05-12 10:23:00,
2013-05-12 05:33:00,36.0,-99.9,29.93,NW,320,25.0,-999.0,-999,-99.99,,,-99.99,,2013-05-12 10:33:00,
2013-05-12 05:42:00,36.0,-99.9,29.93,NW,320,25.0,-999.0,-999,-99.99,,,-99.99,,2013-05-12 10:42:00,
2013-05-12 05:52:00,36.0,-99.9,29.93,NW,320,23.0,32.0,-999,-99.99,,,-99.99,,2013-05-12 10:52:00,
2013-05-12 06:03:00,36.0,-99.9,29.93,NW,320,24.0,32.0,-999,-99.99,,,-99.99,,2013-05-12 11:03:00,
2013-05-12 06:12:00,36.0,-99.9,29.93,NW,320,24.0,32.0,-999,-99.99,,,-99.99,,2013-05-12 11:12:00,
2013-05-12 06:22:00,36.0,-99.9,29.95,NW,320,24.0,-999.0,-999,-99.99,,,-99.99,,2013-05-12 11:22:00,
2013-05-12 06:32:00,36.0,-99.9,29.95,NW,320,24.0,-999.0,-999,-99.99,,,-99.99,,2013-05-12 11:32:00,
2013-05-12 06:42:00,36.0,-99.9,29.95,NW,320,24.0,-999.0,-999,-99.99,,,-99.99,,2013-05-12 11:42:00,
2013-05-12 06:52:00,36.0,-99.9,29.96,NW,320,20.0,30.0,-999,-99.99,,,-99.99,,2013-05-12 11:52:00,
2013-05-12 07:02:00,35.0,-99.9,29.97,NNW,330,30.0,36.0,-999,-99.99,,,-99.99,,2013-05-12 12:02:00,
2013-05-12 07:11:00,35.0,-99.9,29.97,NNW,330,30.0,36.0,-999,-99.99,,,-99.99,,2013-05-12 12:11:00,
2013-05-12 07:22:00,35.0,-99.9,29.97,NNW,330,30.0,36.0,-999,-99.99,,,-99.99,,2013-05-12 12:22:00,
2013-05-12 07:32:00,35.0,-99.9,29.97,NW,320,25.0,-999.0,-999,-99.99,,,-99.99,,2013-05-12 12:32:00,
2013-05-12 07:40:00,35.0,-99.9,29.98,NNW,330,30.0,38.0,-999,-99.99,,,-99.99,,2013-05-12 12:40:00,
2013-05-12 07:42:00,35.0,-99.9,29.97,NW,320,25.0,-999.0,-999,-99.99,,,-99.99,,2013-05-12 12:42:00,
2013-05-12 07:52:00,35.0,-99.9,29.98,NW,320,24.0,30.0,-999,-99.99,,,-99.99,,2013-05-12 12:52:00,
2013-05-12 08:02:00,35.0,-99.9,29.98,NNW,330,30.0,38.0,-999,-99.99,,,-99.99,,2013-05-12 13:02:00,
2013-05-12 08:11:00,35.0,-99.9,29.98,NNW,330,30.0,38.0,-999,-99.99,,,-99.99,,2013-05-12 13:11:00,
2013-05-12 08:21:00,35.0,-99.9,29.98,NNW,330,30.0,38.0,-999,-99.99,,,-99.99,,2013-05-12 13:21:00,
2013-05-12 08:32:00,35.0,-99.9,29.98,NNW,330,30.0,38.0,-999,-99.99,,,-99.99,,2013-05-12 13:32:00,
2013-05-12 08:40:00,35.0,-99.9,30.00,WNW,300,26.0,36.0,-999,-99.99,,,-99.99,,2013-05-12 13:40:00,
2013-05-12 08:52:00,35.0,-99.9,30.00,NW,310,32.0,-999.0,-999,-99.99,,,-99.99,,2013-05-12 13:52:00,
2013-05-12 09:02:00,35.0,-99.9,30.00,WNW,300,26.0,36.0,-999,-99.99,,,-99.99,,2013-05-12 14:02:00,
2013-05-12 09:11:00,35.0,-99.9,30.00,WNW,300,26.0,36.0,-999,-99.99,,,-99.99,,2013-05-12 14:11:00,
2013-05-12 09:22:00,35.0,-99.9,30.00,WNW,300,26.0,36.0,-999,-99.99,,,-99.99,,2013-05-12 14:22:00,
2013-05-12 09:32:00,35.0,-99.9,30.00,WNW,300,26.0,36.0,-999,-99.99,,,-99.99,,2013-05-12 14:32:00,
2013-05-12 09:40:00,36.0,-99.9,30.00,NW,310,23.0,33.0,-999,-99.99,,,-99.99,,2013-05-12 14:40:00,
2013-05-12 10:01:00,36.0,-99.9,30.00,NW,310,23.0,33.0,-999,-99.99,,,-99.99,,2013-05-12 15:01:00,
2013-05-12 10:11:00,36.0,-99.9,30.00,NW,310,23.0,33.0,-999,-99.99,,,-99.99,,2013-05-12 15:11:00,
2013-05-12 10:21:00,36.0,-99.9,30.00,NW,310,23.0,33.0,-999,-99.99,,,-99.99,,2013-05-12 15:21:00,
2013-05-12 10:34:00,36.0,-99.9,30.00,NW,310,23.0,33.0,-999,-99.99,,,-99.99,,2013-05-12 15:34:00,
2013-05-12 10:40:00,36.0,-99.9,30.02,NW,310,22.0,30.0,-999,-99.99,,,-99.99,,2013-05-12 15:40:00,
2013-05-12 11:03:00,36.0,-99.9,30.02,NW,310,22.0,30.0,-999,-99.99,,,-99.99,,2013-05-12 16:03:00,
2013-05-12 11:13:00,36.0,-99.9,30.02,NW,310,22.0,30.0,-999,-99.99,,,-99.99,,2013-05-12 16:13:00,
2013-05-12 11:23:00,36.0,-99.9,30.02,NW,310,22.0,30.0,-999,-99.99,,,-99.99,,2013-05-12 16:23:00,
2013-05-12 11:33:00,36.0,-99.9,30.02,NW,310,22.0,30.0,-999,-99.99,,,-99.99,,2013-05-12 16:33:00,
2013-05-12 11:40:00,37.0,-99.9,30.03,NNW,330,23.0,29.0,-999,-99.99,,,-99.99,,2013-05-12 16:40:00,
2013-05-12 12:02:00,37.0,-99.9,30.03,NNW,330,23.0,29.0,-999,-99.99,,,-99.99,,2013-05-12 17:02:00,
2013-05-12 12:12:00,37.0,-99.9,30.03,NNW,330,23.0,29.0,-999,-99.99,,,-99.99,,2013-05-12 17:12:00,
2013-05-12 12:22:00,37.0,-99.9,30.03,NNW,330,23.0,29.0,-999,-99.99,,,-99.99,,2013-05-12 17:22:00,
2013-05-12 12:32:00,37.0,-99.9,30.03,NNW,330,23.0,29.0,-999,-99.99,,,-99.99,,2013-05-12 17:32:00,
2013-05-12 13:01:00,37.0,-99.9,30.04,NW,320,21.0,28.0,-999,-99.99,,,-99.99,,2013-05-12 18:01:00,
2013-05-12 13:12:00,37.0,-99.9,30.04,NW,320,21.0,28.0,-999,-99.99,,,-99.99,,2013-05-12 18:12:00,
2013-05-12 13:22:00,37.0,-99.9,30.04,NW,320,21.0,28.0,-999,-99.99,,,-99.99,,2013-05-12 18:22:00,
2013-05-12 13:32:00,37.0,-99.9,30.04,NW,310,23.0,29.0,-999,-99.99,,,-99.99,,2013-05-12 18:32:00,
2013-05-12 13:40:00,37.0,-99.9,30.04,NW,320,16.0,23.0,-999,-99.99,,,-99.99,,2013-05-12 18:40:00,
2013-05-12 13:42:00,37.0,-99.9,30.04,NW,310,23.0,29.0,-999,-99.99,,,-99.99,,2013-05-12 18:42:00,
2013-05-12 13:52:00,37.0,-99.9,30.04,NW,310,23.0,29.0,-999,-99.99,,,-99.99,,2013-05-12 18:52:00,
2013-05-12 14:01:00,37.0,-99.9,30.04,NW,320,16.0,23.0,-999,-99.99,,,-99.99,,2013-05-12 19:01:00,
2013-05-12 14:11:00,37.0,-99.9,30.04,NW,320,16.0,23.0,-999,-99.99,,,-99.99,,2013-05-12 19:11:00,
2013-05-12 14:22:00,37.0,-99.9,30.04,NW,320,16.0,23.0,-999,-99.99,,,-99.99,,2013-05-12 19:22:00,
2013-05-12 14:32:00,37.0,-99.9,30.04,NW,320,16.0,23.0,-999,-99.99,,,-99.99,,2013-05-12 19:32:00,
2013-05-12 14:40:00,38.0,-99.9,30.05,NW,310,20.0,24.0,-999,-99.99,,,-99.99,,2013-05-12 19:40:00,
2013-05-12 15:02:00,38.0,-99.9,30.05,NW,310,20.0,24.0,-999,-99.99,,,-99.99,,2013-05-12 20:02:00,
2013-05-12 15:11:00,38.0,-99.9,30.05,NW,310,20.0,24.0,-999,-99.99,,,-99.99,,2013-05-12 20:11:00,
2013-05-12 15:22:00,38.0,-99.9,30.05,NW,310,20.0,24.0,-999,-99.99,,,-99.99,,2013-05-12 20:22:00,
2013-05-12 15:32:00,38.0,-99.9,30.05,NW,310,20.0,24.0,-999,-99.99,,,-99.99,,2013-05-12 20:32:00,
2013-05-12 15:40:00,39.0,-99.9,30.05,NNW,330,17.0,20.0,-999,-99.99,,,-99.99,,2013-05-12 20:40:00,
2013-05-12 16:01:00,39.0,-99.9,30.05,NNW,330,17.0,20.0,-999,-99.99,,,-99.99,,2013-05-12 21:01:00,
2013-05-12 16:11:00,39.0,-99.9,30.05,NNW,330,17.0,20.0,-999,-99.99,,,-99.99,,2013-05-12 21:11:00,
2013-05-12 16:22:00,39.0,-99.9,30.05,NNW,330,17.0,20.0,-999,-99.99,,,-99.99,,2013-05-12 21:22:00,
2013-05-12 16:33:00,39.0,-99.9,30.05,NNW,330,17.0,20.0,-999,-99.99,,,-99.99,,2013-05-12 21:33:00,
2013-05-12 16:40:00,38.0,-99.9,30.07,NNW,340,14.0,18.0,-999,-99.99,,,-99.99,,2013-05-12 21:40:00,
2013-05-12 17:03:00,38.0,-99.9,30.07,NNW,340,14.0,18.0,-999,-99.99,,,-99.99,,2013-05-12 22:03:00,
2013-05-12 17:12:00,38.0,-99.9,30.07,NNW,340,14.0,18.0,-999,-99.99,,,-99.99,,2013-05-12 22:12:00,
2013-05-12 17:23:00,38.0,-99.9,30.07,NNW,340,14.0,18.0,-999,-99.99,,,-99.99,,2013-05-12 22:23:00,
2013-05-12 17:33:00,38.0,-99.9,30.07,NNW,340,14.0,18.0,-999,-99.99,,,-99.99,,2013-05-12 22:33:00,
2013-05-12 17:40:00,40.0,-99.9,30.07,NNW,340,15.0,21.0,-999,-99.99,,,-99.99,,2013-05-12 22:40:00,
2013-05-12 18:02:00,40.0,-99.9,30.07,NNW,340,15.0,21.0,-999,-99.99,,,-99.99,,2013-05-12 23:02:00,
2013-05-12 18:12:00,40.0,-99.9,30.07,NNW,340,15.0,21.0,-999,-99.99,,,-99.99,,2013-05-12 23:12:00,
2013-05-12 18:22:00,40.0,-99.9,30.07,NNW,340,15.0,21.0,-999,-99.99,,,-99.99,,2013-05-12 23:22:00,
2013-05-12 18:32:00,40.0,-99.9,30.07,NNW,340,15.0,21.0,-999,-99.99,,,-99.99,,2013-05-12 23:32:00,
2013-05-12 18:40:00,40.0,-99.9,30.07,NW,320,17.0,20.0,-999,-99.99,,,-99.99,,2013-05-12 23:40:00,
2013-05-12 19:01:00,40.0,-99.9,30.07,NW,320,17.0,20.0,-999,-99.99,,,-99.99,,2013-05-13 00:01:00,
2013-05-12 19:11:00,40.0,-99.9,30.07,NW,320,17.0,20.0,-999,-99.99,,,-99.99,,2013-05-13 00:11:00,
2013-05-12 19:22:00,40.0,-99.9,30.07,NW,320,17.0,20.0,-999,-99.99,,,-99.99,,2013-05-13 00:22:00,
2013-05-12 19:32:00,40.0,-99.9,30.07,NW,320,17.0,20.0,-999,-99.99,,,-99.99,,2013-05-13 00:32:00,
2013-05-12 19:40:00,40.0,-99.9,30.08,NW,320,15.0,20.0,-999,-99.99,,,-99.99,,2013-05-13 00:40:00,
2013-05-12 20:01:00,40.0,-99.9,30.08,NW,320,15.0,20.0,-999,-99.99,,,-99.99,,2013-05-13 01:01:00,
2013-05-12 20:11:00,40.0,-99.9,30.08,NW,320,15.0,20.0,-999,-99.99,,,-99.99,,2013-05-13 01:11:00,
2013-05-12 20:22:00,40.0,-99.9,30.08,NW,320,15.0,20.0,-999,-99.99,,,-99.99,,2013-05-13 01:22:00,
2013-05-12 20:32:00,40.0,-99.9,30.08,NW,320,15.0,20.0,-999,-99.99,,,-99.99,,2013-05-13 01:32:00,
2013-05-12 20:40:00,40.0,-99.9,30.08,NNW,330,13.0,16.0,-999,-99.99,,,-99.99,,2013-05-13 01:40:00,
2013-05-12 21:02:00,40.0,-99.9,30.08,NNW,330,13.0,16.0,-999,-99.99,,,-99.99,,2013-05-13 02:02:00,
2013-05-12 21:11:00,40.0,-99.9,30.08,NNW,330,13.0,16.0,-999,-99.99,,,-99.99,,2013-05-13 02:11:00,
2013-05-12 21:22:00,40.0,-99.9,30.08,NNW,330,13.0,16.0,-999,-99.99,,,-99.99,,2013-05-13 02:22:00,
2013-05-12 21:32:00,40.0,-99.9,30.08,NNW,330,13.0,16.0,-999,-99.99,,,-99.99,,2013-05-13 02:32:00,
2013-05-12 21:40:00,40.0,-99.9,30.10,NW,320,8.0,11.0,-999,-99.99,,,-99.99,,2013-05-13 02:40:00,
2013-05-12 22:02:00,40.0,-99.9,30.10,NW,320,8.0,11.0,-999,-99.99,,,-99.99,,2013-05-13 03:02:00,
2013-05-12 22:11:00,40.0,-99.9,30.10,NW,320,8.0,11.0,-999,-99.99,,,-99.99,,2013-05-13 03:11:00,
2013-05-12 22:22:00,40.0,-99.9,30.10,NW,320,8.0,11.0,-999,-99.99,,,-99.99,,2013-05-13 03:22:00,
2013-05-12 22:33:00,40.0,-99.9,30.10,NW,320,8.0,11.0,-999,-99.99,,,-99.99,,2013-05-13 03:33:00,
2013-05-12 22:40:00,38.0,-99.9,30.09,WNW,290,5.0,9.0,-999,-99.99,,,-99.99,,2013-05-13 03:40:00,
2013-05-12 23:03:00,38.0,-99.9,30.09,WNW,290,5.0,9.0,-999,-99.99,,,-99.99,,2013-05-13 04:03:00,
2013-05-12 23:12:00,38.0,-99.9,30.09,WNW,290,5.0,9.0,-999,-99.99,,,-99.99,,2013-05-13 04:12:00,
2013-05-12 23:23:00,38.0,-99.9,30.09,WNW,290,5.0,9.0,-999,-99.99,,,-99.99,,2013-05-13 04:23:00,
2013-05-12 23:33:00,38.0,-99.9,30.09,WNW,290,5.0,9.0,-999,-99.99,,,-99.99,,2013-05-13 04:33:00,
2013-05-12 23:40:00,38.0,-99.9,30.10,NW,310,8.0,11.0,-999,-99.99,,,-99.99,,2013-05-13 04:40:00,